Location: Härggis
(46.9540°N, 8.4897°E)
Time: 21:56:30
(UTC+00:00)

SL-16 R/B - Pass Details

Date: 06 October 2022
Orbit: 985 x 1007 km, 99.6° (Epoch: 05 December)

Event Time Altitude Azimuth Distance (km) Brightness Sun altitude
Exits shadow 02:22:28 12° 328° (NNW) 2,619 4.7 -31.9°
Drops below altitude 10° 02:22:56 10° 330° (NNW) 2,777 4.9 -31.8°
Sets 02:25:38 0° 339° (NNW) 3,735 5.7 -31.4°
